Overview Statistics Trail Chart Weather Telemetry Raw packets
 

This is the latest recevied weather packets stored in our database for station/object ED3YAB-7. If no packets are shown the sender has not sent any weather packets the latest 10 day(s).

<< 5 6 7 8 9 10 11 >>
Time Temp. Humidity Pressure Rain* Wind** Luminosity Snow
1778036638 8.33° C 72% 1016.6 hPa - - - -
1778035438 8.89° C 71% 1016.6 hPa - - - -
1778034238 8.33° C 72% 1016.5 hPa - - - -
1778033038 8.33° C 72% 1016.4 hPa - - - -
1778031837 9.44° C 71% 1016.3 hPa - - - -
1778030637 9.44° C 72% 1016.2 hPa - - - -
1778029439 8.89° C 72% 1016.4 hPa - - - -
1778028239 10° C 71% 1016.4 hPa - - - -
1778027039 9.44° C 72% 1016.6 hPa - - - -
1778025839 9.44° C 73% 1016.8 hPa - - - -
1778023438 10° C 72% 1016.6 hPa - - - -
1778022238 10.56° C 71% 1016.6 hPa - - - -
1778021038 11.11° C 71% 1016.4 hPa - - - -
1778018638 10.56° C 70% 1017 hPa - - - -
1778017438 11.67° C 69% 1017.2 hPa - - - -
1778016237 11.11° C 69% 1017.2 hPa - - - -
1778015037 11.67° C 68% 1017 hPa - - - -
1778013837 11.67° C 68% 1017 hPa - - - -
1778012637 11.67° C 68% 1016.5 hPa - - - -
1778011444 11.67° C 69% 1016.4 hPa - - - -
1778011437 11.67° C 69% 1016.4 hPa - - - -
1778010237 11.67° C 68% 1016 hPa - - - -
1778009044 12.78° C 63% 1015.7 hPa - - - -
1778009037 12.78° C 63% 1015.7 hPa - - - -
1778008849 12.78° C 62% 1015.6 hPa - - - -

* Rain since midnight (hover to see other rain measurements)
** Current wind speed in m/s (hover to see current wind gust speed)